This is the latest recevied weather packets stored in our database for station/object KE0QIB. If no packets are shown the sender has not sent any weather packets the latest 10 day(s).
| Time | Temp. | Humidity | Pressure | Rain* | Wind** | Luminosity | Snow |
|---|---|---|---|---|---|---|---|
| 1778096809 | 10° C | 31% | 1002.2 hPa | 0 mm | - | - | - |
| 1778096509 | 10° C | 31% | 1002.2 hPa | 0 mm | - | - | - |
| 1778096209 | 10° C | 32% | 1002.4 hPa | 0 mm | - | - | - |
| 1778095909 | 10° C | 33% | 1002.4 hPa | 0 mm | - | - | - |
| 1778095609 | 9.44° C | 33% | 1002.4 hPa | 0 mm | - | - | - |
| 1778095309 | 9.44° C | 31% | 1002.3 hPa | 0 mm | - | - | - |
| 1778095009 | 9.44° C | 32% | 1002.3 hPa | 0 mm | - | - | - |
| 1778094709 | 9.44° C | 31% | 1002.3 hPa | 0 mm | - | - | - |
| 1778094409 | 10° C | 34% | 1002.4 hPa | 0 mm | - | - | - |
| 1778094109 | 9.44° C | 34% | 1002.4 hPa | 0 mm | - | - | - |
| 1778093809 | 10° C | 31% | 1002.4 hPa | 0 mm | - | - | - |
| 1778093509 | 10° C | 33% | 1002.8 hPa | 0 mm | - | - | - |
| 1778093210 | 10° C | 32% | 1002.8 hPa | 0 mm | - | - | - |
| 1778092909 | 10° C | 33% | 1002.8 hPa | 0 mm | - | - | - |
| 1778092609 | 10° C | 32% | 1002.8 hPa | 0 mm | - | - | - |
| 1778092309 | 10.56° C | 30% | 1002.8 hPa | 0 mm | - | - | - |
| 1778092010 | 10.56° C | 33% | 1002.8 hPa | 0 mm | - | - | - |
| 1778091709 | 10° C | 35% | 1003.1 hPa | 0 mm | - | - | - |
| 1778091409 | 9.44° C | 33% | 1003.1 hPa | 0 mm | - | - | - |
| 1778091109 | 9.44° C | 33% | 1003.1 hPa | 0 mm | - | - | - |
| 1778090810 | 9.44° C | 32% | 1003.3 hPa | 0 mm | - | - | - |
| 1778090509 | 9.44° C | 35% | 1003.3 hPa | 0 mm | - | - | - |
| 1778090209 | 8.89° C | 34% | 1003.3 hPa | 0 mm | - | - | - |
| 1778089909 | 8.89° C | 33% | 1003.6 hPa | 0 mm | - | - | - |
| 1778089609 | 8.89° C | 33% | 1003.6 hPa | 0 mm | - | - | - |
* Rain latest hour (hover to see other rain measurements)
** Current wind speed in m/s (hover to see current wind gust speed)